Weather Roundup
Issued by NWS

Home | Current Version | Previous Version | Graphics & Text | Print | Product List | Glossary Off
Versions: 1 2 3 4 5 6 7 8 9 10 11 12 13 14 15 16 17 18 19 20 21 22 23 24 25 26 27 28 29 30 31 32 33 34 35 36 37 38 39 40 41 42 43 44 45 46 47 48 49 50

000
NZUS93 KARX 270110
HRRWXR

CURRENT HOURLY OBSERVATIONS ACROSS
MUCH OF THE UPPER MISSISSIPPI VALLEY
NATIONAL WEATHER SERVICE LA CROSSE WI
700 PM CST THU FEB 26 2015


...SOUTHEAST MINNESOTA...


CITY           SKY/WX    TMP DP  RH WIND       PRES   REMARKS
ROCHESTER      CLEAR     -2 -10  69 W10       30.41R WCI -19
ROCHESTER/MAYO FAIR       4  -5  64 W13       30.42R WCI -13
WINONA         CLEAR      9  -6  52 NW5       30.46R WCI   0
AUSTIN         CLEAR      0  -8  71 W9        30.43R WCI -16
ALBERT LEA     CLEAR      0  -8  71 NW7       30.44R WCI -13
DODGE CENTER   PTCLDY     1  -8  66 W10       30.40S WCI -14
PRESTON        CLEAR     -2 -10  69 NW10      30.41R WCI -19
OWATONNA       CLEAR     -2  -9  71 W10       30.45R WCI -19
FARIBAULT      CLEAR      1  -8  66 W7        30.46R WCI -11
$$

...ELSEWHERE IN MINNESOTA...


CITY           SKY/WX    TMP DP  RH WIND       PRES   REMARKS
MINNEAPOLIS    CLEAR      5  -8  55 NW9       30.46R WCI  -9
INTNL FALLS    CLEAR     -6 -16  61 W3        30.38R
DULUTH         CLEAR      4 -12  48 W9        30.33R WCI -10
RED WING       CLEAR      7  -9  47 N3        30.45R
REDWOOD FALLS  CLEAR     -2  -8  76 W10       30.51R WCI -19
MANKATO        CLEAR      0 -15  50 NW12      30.47R WCI -18
FAIRMONT       CLEAR      0  -9  65 NW10      30.46S WCI -17
$$

...SOUTHWEST WISCONSIN...


CITY           SKY/WX    TMP DP  RH WIND       PRES   REMARKS
LA CROSSE      CLEAR      3  -8  60 NW7       30.44R WCI  -9
PRAIRIE DU CHI CLEAR      5  -8  56 W7        30.45R WCI  -7
BOSCOBEL       CLEAR      8  -6  52 NW6       30.43R WCI  -2
LONE ROCK      MOCLDY     9  -5  53 NW10      30.41R WCI  -5
PLATTEVILLE    CLEAR      6  -6  57 NW8       30.38R WCI  -7
FORT MC COY    CLEAR      2  -9  59 CALM      30.42R
VIROQUA        FAIR       2  -8  62 NW5       30.37R WCI  -8
WIS DELLS      CLEAR      7  -9  48 NW3       30.37R
$$

...ELSEWHERE IN WISCONSIN...


CITY           SKY/WX    TMP DP  RH WIND       PRES   REMARKS
MILWAUKEE      PTCLDY    10  -6  48 NW9       30.37R WCI  -3
MADISON        CLEAR      7  -7  52 NW5       30.37R WCI  -2
GREEN BAY      CLEAR      9  -3  58 SW5       30.35R WCI   1
EAU CLAIRE     PTCLDY     4 -10  52 W3        30.41R
BLACK RVR FLS  FAIR       5 -10  48 NW3       30.41R
MEDFORD        CLEAR      2  -9  58 W6        30.31R WCI  -9
WAUSAU         CLEAR      6  -8  52 NW7       30.31R WCI  -6
WIS RAPIDS     CLEAR      4 -10  52 W5        30.37R WCI  -5
MARSHFIELD     CLEAR      3  -9  57 W6        30.34R WCI  -8
RICE LAKE      CLEAR      4 -10  52 CALM      30.41R
$$

...NORTHEAST IOWA...


CITY           SKY/WX    TMP DP  RH WIND       PRES   REMARKS
DECORAH        CLEAR      1  -9  60 VRB5      30.41R WCI  -8
MASON CITY     CLEAR     -6 -12  75 W9        30.47R WCI -23
CHARLES CITY   CLEAR     -4 -11  71 NW10      30.45S WCI -21
OELWEIN        CLEAR     -9 -17  70 NW9       30.45R WCI -27
$$

...ELSEWHERE IN IOWA...


CITY           SKY/WX    TMP DP  RH WIND       PRES   REMARKS
DES MOINES     PTCLDY     6  -5  60 N13       30.51R WCI -10
IOWA CITY      CLEAR      3  -5  69 NW12      30.49R WCI -13
FORT DODGE     CLEAR      0  -8  71 N5        30.51R WCI -10
$$

...NORTHERN ILLINOIS...


CITY           SKY/WX    TMP DP  RH WIND       PRES   REMARKS
CHICAGO-OHARE  PTCLDY     9  -5  53 NW12      30.36R WCI  -6
CHICAGO-MIDWAY PTCLDY    14  -1  51 NW9       30.36R WCI   2
MOLINE         CLEAR      7  -3  64 NW12      30.44R WCI  -8
ROCKFORD       CLEAR      7  -6  55 NW6       30.40R WCI  -3
PEORIA         CLOUDY    12   5  73 VRB3      30.42R
$$

NOTE: "FAIR" INDICATES FEW OR NO CLOUDS BELOW 12,000 FEET WITH NO
SIGNIFICANT WEATHER AND/OR OBSTRUCTIONS TO VISIBILITY. WIND
SPEEDS ARE IN MILES-PER-HOUR.



USA.gov is the U.S. government's official web portal to all federal, state and local government web resources and services.